Tracking 18850 objects as of 22-Nov-2017
HD Live streaming from Space Station
objects crossing your sky now

COSMOS 1959

Track COSMOS 1959 now!
10-day predictions
COSMOS 1959 is classified as:


NORAD ID: 19324
Int'l Code: 1988-062A
Perigee: 960.7 km
Apogee: 1,009.2 km
Inclination: 82.9 °
Period: 104.6 minutes
Semi major axis: 7355 km
RCS: 2.5206 m2 (large)
Launch date: July 18, 1988
Source: Commonwealth of Independent States (former USSR) (CIS)
Launch site: PLESETSK MISSILE AND SPACE COMPLEX (PKMTR)
aabbcc
Your satellite tracking list
Your tracking list is empty




NASA's NSSDC Master Catalog

Two Line Element Set (TLE):
1 19324U 88062A   17326.48957425  .00000037  00000-0  22891-4 0  9992
2 19324  82.9495 282.6338 0032985 225.2768 263.8252 13.76075147473653
Source of the keplerian elements: AFSPC